{"data":{"norad_id":66315,"intl_designator":"2025-251A","name":"SENTINEL-1D","alt_names":[],"object_type":"PAYLOAD","status":"ACTIVE","operator":null,"country":"ESA","launch_date":"2025-11-04","launch_site_code":"FRGUI","launch_vehicle":null,"mission":null,"orbit_class":"UNKNOWN","rcs_meters":null,"size_class":null,"mass_kg":null,"dimensions":null,"purposes":[],"wikipedia_slug":null,"has_3d_model":false,"image_url":null,"decayed_at":null,"tle_current":{"epoch":"2026-09-20T11:33:08.621856Z","epoch_age_seconds":133342,"freshness":"FRESH","line1":"1 66315U 25251A   26263.48134979  .00000146  00000+0  40638-4 0  9995","line2":"2 66315  98.1828 269.4929 0001332  91.0291 269.1061 14.59197956 46620","mean_motion":14.59197956,"eccentricity":0.0001332,"inclination_deg":98.1828,"raan_deg":269.4929,"arg_perigee_deg":91.0291,"mean_anomaly_deg":269.1061,"bstar":4.0638e-5,"rev_number":4662,"period_min":98.684348760149,"perigee_km":694.82265820933,"apogee_km":696.70714567601,"semimajor_km":7073.9019019427,"source":"CELESTRAK","updated_at":"2026-09-21T09:00:15.906421Z"}}}